Flag for U.S.A. Weather past 2 weeks in Seattle, Washington, U.S.A.

Now
65 °F

Cloudy.


Feels Like: 65 °F
Forecast: 58 / 65 °F
Wind: 15 mph from South

Location: Seattle Boeing Field

Current Time: Aug 31, 2015 at 1:06:41 PM

Latest Report: Aug 31, 2015 at 11:53 AM


Visibility: 10 mi

Pressure: 29.98 "Hg

Humidity: 70%

Dew point: 55 °F

Location of SeattleLocation

Historic Weather in Seattle — Graph

°F

Seattle temperature yesterday

Maximum temperature yesterday: 71 °F (at 3:53 PM)
Minimum temperature yesterday: 59 °F (at 12:53 AM)
Average temperature yesterday: 64 °F

Past Weeks' High & Low Weather Summary

 TemperatureHumidityPressure
High91 °F (Aug 19, 4:53 PM)100% (Aug 30, 3:53 AM)30.24 "Hg (Aug 30, 3:53 AM)
Low57 °F (Aug 22, 3:53 AM)22% (Aug 27, 4:53 PM)29.50 "Hg (Aug 29, 4:53 AM)
Average69 °F54%29.96 "Hg
* Reported Aug 16 11:53 AM — Aug 31 11:53 AM, Seattle, Weather by CustomWeather, © 2015

Note: Actual official high and low records may vary slightly from our data, if they occured in-between our weather recording intervals... More about our weather records

Advertising

Seattle weather history for previous 24 hours

 ConditionsComfort  
Time TempWeatherWind HumidityBarometerVisibility
11:53 AM
Mon, Aug 31
65 °FCloudy.15 mph70%29.98 "Hg10 mi
10:53 AM66 °FMostly cloudy.7 mph63%29.98 "Hg10 mi
9:53 AM65 °FPartly sunny.8 mph68%29.97 "Hg10 mi
8:53 AM66 °FOvercast.10 mph59%29.96 "Hg10 mi
7:53 AM65 °FOvercast.13 mph61%29.96 "Hg10 mi
6:53 AM66 °FOvercast.8 mph56%29.95 "Hg10 mi
5:53 AM65 °FOvercast.10 mph59%29.94 "Hg10 mi
4:53 AM65 °FOvercast.15 mph56%29.95 "Hg10 mi
3:53 AM65 °FOvercast.14 mph56%29.96 "Hg10 mi
2:53 AM66 °FMostly cloudy.12 mph54%29.96 "Hg10 mi
1:53 AM65 °FOvercast.9 mph59%29.98 "Hg10 mi
12:53 AM65 °FOvercast.10 mph56%29.98 "Hg10 mi
11:53 PM
Sun, Aug 30
65 °FOvercast.10 mph59%29.98 "Hg10 mi
10:53 PM65 °FOvercast.9 mph61%29.99 "Hg10 mi
9:53 PM65 °FOvercast.9 mph61%29.99 "Hg10 mi
8:53 PM66 °FMostly cloudy.9 mph59%29.99 "Hg10 mi
7:53 PM66 °FBroken clouds.7 mph59%29.98 "Hg10 mi
6:53 PM67 °FBroken clouds.8 mph59%29.96 "Hg10 mi
5:53 PM69 °FBroken clouds.9 mph55%29.96 "Hg10 mi
4:53 PM68 °FBroken clouds.7 mph55%29.96 "Hg10 mi
3:53 PM71 °FBroken clouds.9 mph51%29.95 "Hg10 mi
2:53 PM68 °FBroken clouds.12 mph55%29.95 "Hg10 mi
1:53 PM68 °FBroken clouds.12 mph61%29.94 "Hg10 mi
Weather by CustomWeather, © 2015

See weather overviewHow to use our weather pages